******************************************************************************* JPL/HORIZONS 238P/Read 2025-Dec-12 18:03:10 Rec #:90001200 (+COV) Soln.date: 2024-May-30_15:51:09 # obs: 119 (2005-2022) IAU76/J2000 helio. ecliptic osc. elements (au, days, deg., period=Julian yrs): EPOCH= 2459837.5 ! 2022-Sep-15.0000000 (TDB) RMSW= n.a. EC= .2516735764622148 QR= 2.369348784486682 TP= 2459735.9318309468 OM= 51.62545363512518 W= 324.2068074675905 IN= 1.264088307957321 A= 3.166196876070949 MA= 17.76866597740847 ADIST= 3.963044967655217 PER= 5.6339770863981 N= .174943254 ANGMOM= .029623849 DAN= 2.46288 DDN= 3.72635 L= 15.8388767 B= -.7392769 MOID= 1.37014997 TP= 2022-Jun-05.4318309468 Comet physical (GM= km^3/s^2; RAD= km): GM= n.a. RAD= n.a. M1= 8.3 M2= 18.8 k1= 29.75 k2= 5. PHCOF= .030 Comet non-gravitational force model (AMRAT=m^2/kg;A1-A3=au/d^2;DT=days;R0=au): AMRAT= 0. DT= 0. A1= 1.639511585236E-9 A2= -1.022133044899E-10 A3= 1.337924040854E-10 Standard model: ALN= .1112620426 NK= 4.6142 NM= 2.15 NN= 5.093 R0= 2.808 COMET comments 1: soln ref.= JPL#38, data arc: 2005-11-22 to 2022-12-24 2: k1=29.75, k2=5., phase coef.=0.03; ******************************************************************************* ******************************************************************************* Ephemeris / WWW_USER Fri Dec 12 18:03:10 2025 Pasadena, USA / Horizons ******************************************************************************* Target body name: 238P/Read {source: JPL#38} Center body name: Earth (399) {source: DE441} Center-site name: GEOCENTRIC ******************************************************************************* Start time : A.D. 2028-Jan-24 00:00:00.0000 UT Stop time : A.D. 2028-Jan-25 00:00:00.0000 UT Step-size : 180 minutes ******************************************************************************* Target pole/equ : undefined Target radii : undefined Center geodetic : 0.0, 0.0, -6378.137 {E-lon(deg),Lat(deg),Alt(km)} Center cylindric: 0.0, 0.0, 0.0 {E-lon(deg),Dxy(km),Dz(km)} Center pole/equ : ITRF93 {East-longitude positive} Center radii : 6378.137, 6378.137, 6356.752 km {Equator_a, b, pole_c} Target primary : Sun Vis. interferer : MOON (R_eq= 1737.400) km {source: DE441} Rel. light bend : Sun {source: DE441} Rel. lght bnd GM: 1.3271E+11 km^3/s^2 Small-body perts: Yes {source: SB441-N16} Atmos refraction: NO (AIRLESS) RA format : HMS Time format : CAL Calendar mode : Mixed Julian/Gregorian EOP file : eop.251212.p260310 EOP coverage : DATA-BASED 1962-JAN-20 TO 2025-DEC-12. PREDICTS-> 2026-MAR-09 Units conversion: 1 au= 149597870.700 km, c= 299792.458 km/s, 1 day= 86400.0 s Table cut-offs 1: Elevation (-90.0deg=NO ),Airmass (>38.000=NO), Daylight (NO ) Table cut-offs 2: Solar elongation ( 0.0,180.0=NO ),Local Hour Angle( 0.0=NO ) Table cut-offs 3: RA/DEC angular rate ( 0.0=NO ) ******************************************************************************* Initial IAU76/J2000 heliocentric ecliptic osculating elements (au, days, deg.): EPOCH= 2459837.5 ! 2022-Sep-15.0000000 (TDB) RMSW= n.a. EC= .2516735764622148 QR= 2.369348784486682 TP= 2459735.9318309468 OM= 51.62545363512518 W= 324.2068074675905 IN= 1.264088307957321 Equivalent ICRF heliocentric cartesian coordinates (au, au/d): X= 1.692588092332237E+00 Y= 1.608912060491604E+00 Z= 6.917834055107894E-01 VX=-7.866112015619082E-03 VY= 8.481373530328901E-03 VZ= 3.965173602524011E-03 Comet physical (GM= km^3/s^2; RAD= km): GM= n.a. RAD= n.a. M1= 8.3 M2= 18.8 k1= 29.75 k2= 5. PHCOF= .030 Comet non-gravitational force model (AMRAT=m^2/kg;A1-A3=au/d^2;DT=days;R0=au): AMRAT= 0. DT= 0. A1= 1.639511585236E-9 A2= -1.022133044899E-10 A3= 1.337924040854E-10 Standard model: ALN= .1112620426 NK= 4.6142 NM= 2.15 NN= 5.093 R0= 2.808 ******************************************************************************* Date__(UT)__HR:MN r rdot ************************************************** $$SOE 2028-Jan-24 00:00 2.376928926071 -0.0015392 2028-Jan-24 03:00 2.376928917280 0.0012957 2028-Jan-24 06:00 2.376929113138 0.0041306 2028-Jan-24 09:00 2.376929513645 0.0069654 2028-Jan-24 12:00 2.376930118801 0.0098003 2028-Jan-24 15:00 2.376930928605 0.0126352 2028-Jan-24 18:00 2.376931943058 0.0154701 2028-Jan-24 21:00 2.376933162159 0.0183050 2028-Jan-25 00:00 2.376934585906 0.0211398 $$EOE ******************************************************************************* Column meaning: TIME Times PRIOR to 1962 are UT1, a mean-solar time closely related to the prior but now-deprecated GMT. Times AFTER 1962 are in UTC, the current civil or "wall-clock" time-scale. UTC is kept within 0.9 seconds of UT1 using integer leap-seconds for 1972 and later years. Conversion from the internal Barycentric Dynamical Time (TDB) of solar system dynamics to the non-uniform civil UT time-scale requested for output has not been determined for UTC times after the next July or January 1st. Therefore, the last known leap-second is used as a constant over future intervals. Time tags refer to the UT time-scale conversion from TDB on Earth regardless of observer location within the solar system, although clock rates may differ due to the local gravity field and no analog to "UT" may be defined for that location. Any 'b' symbol in the 1st-column denotes a B.C. date. First-column blank (" ") denotes an A.D. date. CALENDAR SYSTEM Mixed calendar mode was active such that calendar dates after AD 1582-Oct-15 (if any) are in the modern Gregorian system. Dates prior to 1582-Oct-5 (if any) are in the Julian calendar system, which is automatically extended for dates prior to its adoption on 45-Jan-1 BC. The Julian calendar is useful for matching historical dates. The Gregorian calendar more accurately corresponds to the Earth's orbital motion and seasons. A "Gregorian-only" calendar mode is available if such physical events are the primary interest. NOTE: "n.a." in output means quantity "not available" at the print-time. 'r rdot' = The Sun's apparent range ("r", light-time aberrated) and range-rate ("rdot") relative to the target center, as seen by the observer. A positive "rdot" means the target center was moving away from the Sun, negative means moving toward the Sun. Units: AU and KM/S Computations by ... Solar System Dynamics Group, Horizons On-Line Ephemeris System 4800 Oak Grove Drive, Jet Propulsion Laboratory Pasadena, CA 91109 USA General site: https://ssd.jpl.nasa.gov/ Mailing list: https://ssd.jpl.nasa.gov/email_list.html System news : https://ssd.jpl.nasa.gov/horizons/news.html User Guide : https://ssd.jpl.nasa.gov/horizons/manual.html Connect : browser https://ssd.jpl.nasa.gov/horizons/app.html#/x API https://ssd-api.jpl.nasa.gov/doc/horizons.html command-line telnet ssd.jpl.nasa.gov 6775 e-mail/batch https://ssd.jpl.nasa.gov/ftp/ssd/horizons_batch.txt scripts https://ssd.jpl.nasa.gov/ftp/ssd/SCRIPTS Author : Jon.D.Giorgini@jpl.nasa.gov ******************************************************************************* !$$SOF COMMAND = '238P' QUANTITIES = '19' START_TIME = '2028-Jan-24' STEP_SIZE = '3 hours' STOP_TIME = '2028-Jan-25'